User: anonymous   Login
Location: Unspecified
(48.7670°N, 0.0000°E)
Time: 11:54:30
(UTC+00:00)
Language:

Vanguard 1 Rocket - Orbit

View from above orbital plane
View from above orbital plane
View from above satellite
View from above satellite

Ground track
Ground track

The orbit data is extracted from the following two-line orbital elements,

1    16U 58002A   19175.14881806 +.00000011 +00000-0 +13088-4 0  9997
2    16 034.2619 112.1244 2026055 162.7748 205.3251 10.48747167421116
Epoch (UTC): 24 June 2019 03:34:17
Eccentricity: 0.2026055
inclination: 34.2619°
perigee height: 652 km
apogee height: 4224 km
right ascension of ascending node: 112.1244°
argument of perigee: 162.7748°
revolutions per day: 10.48747167
mean anomaly at epoch: 205.3251°
orbit number at epoch: 42111

The dashed part of the orbit path shows where the satellite is in the earth's shadow,  

DLR